Location: El Conde
(10.2895°N, 67.2409°W)
Time: 07:45:11
(UTC+00:00)

Cosmos 1844 - Pass Details

Date: 19 May 2024
Orbit: 821 x 868 km, 70.9° (Epoch: 22 June)

Event Time Altitude Azimuth Distance (km) Brightness Sun altitude
Rises 22:55:43 0° 348° (NNW) 3,436 7.4 -3.5°
Reaches altitude 10° 22:58:13 10° 351° (N) 2,496 6.6 -4.0°
Maximum altitude 23:03:55 68° 74° (ENE) 917 3.8 -5.3°
Drops below altitude 10° 23:09:34 10° 156° (SSE) 2,470 5.7 -6.6°
Sets 23:12:01 0° 159° (SSE) 3,398 6.4 -7.2°
